Orbital Elements at Epoch 2459200.5 (2020-Dec-17.0) TDB
Reference: JPL 32 (heliocentric ecliptic J2000)
Element | Value | Uncertainty (1-sigma) | Units |
e | .2217907672800825 | 4.1216e-08 | |
a | 2.232464324107976 | 5.8382e-09 | au |
q | 1.737324348738657 | 9.2323e-08 | au |
i | 6.113483832462219 | 4.0344e-06 | deg |
node | 302.7806617114195 | 3.298e-05 | deg |
peri | 37.51036413919407 | 3.366e-05 | deg |
M | 242.6864713017106 | 7.7725e-06 | deg |
tp | 2459597.527706874480 (2022-Jan-18.02770687) | 2.696e-05 | TDB |
period | 1218.358837729658 3.34 | 4.7793e-06 1.309e-08 | d yr |
n | .2954794505950638 | 1.1591e-09 | deg/d |
Q | 2.727604299477294 | 7.1331e-09 | au |
|
| | Orbit Determination Parameters
Additional Information
|